Simultaneous Nadir Overpasses (SNOs) Predictions

Prediction of SNOs between LANDSAT-8 and NOAA-19 Satellite Orbit:

Table of predicted SNOs for the next 14.0 days since TLE Epoch: 9/3/2022
Index Date (LANDSAT-8) Time (LANDSAT-8) Lat,Lon (LANDSAT-8) SZA (LANDSAT-8 ) Date (NOAA-19) Time (NOAA-19) Lat,Lon (NOAA-19) SZA (NOAA-19 ) Distance(km) Time Diff (sec)
1 09/04/2022 09:04:51 -80.83,-100.13 104.51 09/04/2022 09:05:08 -80.84, -99.98 104.48 2.93 17
2 09/06/2022 14:38:35 80.87, -3.13 76.40 09/06/2022 14:37:56 80.85, -3.28 76.36 3.41 39
3 09/06/2022 15:28:03 -80.84, 164.14 103.65 09/06/2022 15:29:00 -80.85, 163.98 103.63 2.93 57
4 09/08/2022 21:01:48 80.84, -99.28 77.21 09/08/2022 21:01:48 80.85, -99.24 77.23 1.30 0
5 09/11/2022 02:35:34 -80.83, -2.79 101.94 09/11/2022 02:34:44 -80.85, -2.64 101.93 3.45 50
6 09/11/2022 03:25:00 80.84, 164.87 78.08 09/11/2022 03:25:40 80.85, 164.79 78.10 2.13 40
7 09/13/2022 08:58:45 -80.86, -98.32 101.02 09/13/2022 08:58:35 -80.85, -98.43 101.04 1.91 10
8 09/15/2022 14:32:29 80.87, -1.58 79.88 09/15/2022 14:31:24 80.85, -1.64 79.84 1.99 65



Historial Predications of SNOs between LANDSAT-8 and NOAA-19
